Location: Austin
(30.3000°N, 97.7500°W)
Time: 05:53:01
(UTC-06:00)

Cosmos 1437 Rocket - Pass Details

Date: 03 March 2026
Orbit: 443 x 482 km, 81.2° (Epoch: 6 March)

Event Time Altitude Azimuth Distance (km) Brightness Sun altitude
Rises 19:13:47 0° 352° (N) 2,455 6.2 -9.9°
Reaches altitude 10° 19:15:52 10° 352° (N) 1,575 5.2 -10.4°
Maximum altitude 19:19:18 88° 263° (W) 449 2.4 -11.1°
Drops below altitude 10° 19:22:42 10° 174° (S) 1,554 5.1 -11.9°
Sets 19:24:44 0° 174° (S) 2,419 6.1 -12.3°
